Location: *
(51.0333°S, 178.4667°E)
Time: 02:16:16
(UTC+00:00)

Cosmos 1743 - Pass Details

Date: 15 November 2019
Orbit: 510 x 528 km, 82.6° (Epoch: 13 December)

Event Time Altitude Azimuth Distance (km) Brightness Sun altitude
Exits shadow 10:59:14 55° 349° (N) 649 2.8 -19.6°
Maximum altitude 11:00:03 89° 263° (W) 543 2.7 -19.6°
Drops below altitude 10° 11:04:03 10° 170° (S) 1,812 6.5 -19.7°
Sets 11:06:14 0° 169° (S) 2,713 7.6 -19.8°
